Wetbulb
40.53 36.91 34.63 37.87 39.68 39.74 39.18 37.39 37.53 39.99 36.80 35.08 36.54 37.21 39.90 42.70 38.83 39.32 41.71 43.40 42.46 41.61 43.37 42.87 42.14 41.94 41.00 40.66 39.21 38.52 37.60 37.64 37.58 37.65 37.41 37.56 37.38 37.72 37.87 38.09 38.20 38.15 38.19 39.26
35.79 32.85 38.39 39.28 38.44 38.13 37.10 35.22 35.20 38.20 35.52 32.69 35.44 35.74 38.86 40.06 40.76 39.77 40.64 41.73 42.07 41.45 41.67 41.33 40.25 40.13 39.79 39.14 38.46 37.82 37.59 36.95 37.59 38.25 39.03 39.06 38.09 38.11 37.91 37.46 37.31 37.66 37.64 38.11
34.27 34.58 34.41 34.90 35.11 33.63 34.59 33.84 34.57 34.48 36.17 34.54 33.48 32.80 36.14 38.96 40.27 40.79 41.26 42.49 42.77 41.56 40.41 40.09 38.27 38.85 39.36 38.33 37.77 37.45 37.34 36.70 37.25 38.04 37.90 37.49 37.33 36.64 35.78 35.74 35.80 36.48 37.08 37.40
34.77 34.76 32.30 32.44 32.39 34.37 30.51 36.40 35.09 33.84 31.80 28.97 33.65 27.47 35.89 39.05 39.21 38.43 39.35 39.55 40.94 41.46 41.55 40.53 37.85 38.63 38.59 38.22 38.78 37.99 37.53 36.53 36.80 37.51 35.91 35.20 34.58 33.81 35.93 36.08 36.18 35.53 36.57 36.41
31.65 30.65 30.01 30.24 32.03 34.09 31.88 32.67 32.83 33.26 31.88 31.25 31.87 27.75 33.53 37.41 36.32 38.06 38.04 38.55 39.63 41.85 42.26 40.73 38.22 39.04 39.82 39.27 38.23 37.52 37.10 36.42 36.54 36.24 36.30 35.99 36.62 37.52 37.07 36.05 34.92 35.05 35.62 36.10
30.49 30.67 30.99 31.77 29.60 30.36 32.63 31.34 30.88 30.90 30.33 23.50 30.10 30.02 31.59 35.69 37.05 37.60 39.77 40.09 38.41 40.77 42.01 41.96 41.03 40.69 39.56 38.96 37.88 36.91 36.10 35.72 36.10 35.68 36.13 36.07 36.50 36.06 34.94 34.70 34.30 34.28 34.70 34.75
27.99 28.83 29.34 30.18 29.06 30.37 30.74 29.52 25.22 23.50 22.01 22.61 30.19 30.19 32.76 37.44 38.39 37.05 37.56 40.14 40.13 39.72 41.51 40.89 40.20 39.01 38.46 37.20 36.46 36.28 35.63 34.67 35.57 35.44 35.63 36.14 36.49 36.04 35.05 34.81 34.77 34.17 34.11 34.14
26.97 25.14 26.96 29.57 29.94 29.39 28.60 29.94 26.56 20.65 24.02 27.75 26.09 24.23 31.80 38.08 39.20 38.46 37.05 37.28 39.37 39.12 40.69 41.03 40.36 38.62 37.84 36.88 36.54 35.94 34.98 34.55 35.01 34.88 35.22 36.06 36.55 36.16 36.12 35.74 35.76 35.24 35.02 34.89
27.12 25.95 26.23 26.16 27.64 28.12 27.79 23.91 29.99 25.26 19.91 21.37 28.29 32.33 35.85 37.26 36.83 37.50 37.18 35.66 35.61 37.65 38.97 40.91 40.74 39.03 38.17 36.73 36.23 35.77 34.89 34.91 34.69 34.89 35.16 35.21 35.82 35.63 35.53 35.96 36.48 35.79 36.25 35.36
30.49 25.01 23.58 24.25 26.84 27.49 25.65 27.91 23.48 24.94 18.55 19.73 27.29 28.95 30.45 35.06 36.67 37.73 37.56 37.46 37.05 37.04 37.53 38.75 40.15 38.83 38.61 37.21 36.75 36.39 35.81 35.05 34.65 34.82 35.11 34.95 34.83 35.19 35.89 35.79 34.82 35.26 35.64 34.66
33.24 27.88 20.22 22.64 22.05 25.32 22.65 24.08 23.60 24.47 26.12 22.42 22.51 28.73 37.76 36.15 35.51 34.62 35.55 35.84 36.51 37.70 36.75 37.61 38.99 39.11 39.07 37.38 36.58 35.74 35.40 35.03 34.16 34.20 34.54 34.25 34.00 34.35 34.92 34.34 34.75 35.28 34.99 33.86
30.27 30.67 23.63 23.75 24.29 24.19 22.62 26.66 26.91 23.34 23.69 24.59 24.02 25.49 37.50 38.11 35.10 33.33 33.62 35.14 35.49 36.59 37.18 37.35 38.13 38.33 37.85 36.55 35.92 35.22 35.16 34.81 34.69 34.51 34.06 33.79 34.17 34.02 33.49 34.20 34.66 34.97 33.97 33.89
27.79 26.06 21.71 21.25 20.50 20.58 19.54 23.87 25.60 27.66 25.00 22.29 22.19 27.05 34.21 35.53 36.37 36.34 34.17 34.86 35.87 34.75 36.34 37.21 37.43 36.90 36.68 36.37 35.71 35.14 35.21 34.87 34.60 34.05 33.50 33.27 33.26 33.39 33.56 33.70 34.08 34.00 33.40 32.67
30.17 30.15 25.01 22.80 22.59 23.81 17.75 20.13 23.41 23.47 21.84 23.64 25.03 27.52 32.19 34.24 34.65 36.02 36.69 37.88 37.60 34.90 34.79 35.87 36.37 36.72 36.35 35.92 35.85 35.38 35.04 35.16 34.21 33.65 33.37 32.87 33.46 33.54 33.50 33.72 33.40 32.95 32.71 31.64
29.69 21.71 21.68 23.98 24.46 21.96 22.17 21.47 20.61 19.50 22.24 20.97 26.19 27.82 31.65 33.96 34.97 35.93 36.56 36.42 34.45 33.34 33.70 34.45 35.15 35.87 35.58 34.88 34.94 35.25 35.15 34.99 34.95 33.97 33.37 33.14 33.67 33.80 33.45 33.07 32.70 32.41 31.91 31.17
23.74 24.61 18.57 20.21 24.91 22.66 18.34 21.68 20.97 23.06 23.57 24.28 25.55 25.08 32.02 33.55 34.65 34.21 35.13 35.12 34.09 34.75 34.50 33.86 33.74 33.85 32.96 33.07 34.54 34.19 35.39 34.63 34.69 33.52 32.62 33.02 32.80 32.54 32.49 32.24 31.76 31.33 30.76 30.44
23.48 24.35 19.87 18.53 21.11 21.44 16.99 20.98 21.85 24.28 26.20 25.43 22.01 28.40 33.46 32.71 33.47 34.59 35.08 35.09 34.29 34.57 34.80 34.35 33.76 33.40 33.20 33.83 34.09 33.88 34.33 34.01 33.30 32.43 32.42 32.15 31.91 30.98 30.80 30.79 30.13 29.39 28.95 28.77
23.49 23.59 24.09 20.59 16.41 12.65 26.51 27.59 27.77 25.47 27.76 30.08 28.87 29.91 31.75 33.00 34.87 35.93 35.52 32.12 33.08 33.60 34.00 34.31 34.20 34.48 33.05 33.35 33.46 33.39 33.29 32.37 31.79 31.65 31.01 30.82 29.83 28.43 28.67 28.09 27.46 27.34 26.15 23.48
28.65 24.16 20.90 18.33 17.80 22.52 25.08 29.05 23.80 21.26 25.61 28.94 29.72 31.71 32.70 33.76 33.00 31.38 29.01 26.80 29.37 29.06 33.52 34.15 34.42 33.61 32.51 31.96 31.88 30.82 29.83 29.71 29.50 28.28 28.04 27.78 27.05 25.59 24.37 23.11 22.44 22.45 21.39 20.09
24.10 26.81 23.08 20.59 15.75 14.58 25.05 27.22 30.33 28.82 20.97 31.66 32.42 32.01 32.45 32.72 25.65 32.22 22.00 22.18 23.38 25.02 27.49 28.74 28.44 28.66 28.16 27.69 28.14 26.45 24.86 23.91 22.48 23.01 22.89 23.44 22.78 21.31 19.84 20.11 19.95 19.94 19.04 17.62
16.36 18.58 17.32 19.39 18.19 22.23 31.02 26.58 29.03 20.97 28.78 29.38 30.35 31.17 31.28 29.95 30.60 22.76 21.20 19.04 19.89 20.72 21.71 23.76 23.71 22.20 22.55 23.58 22.23 19.20 18.20 16.40 17.39 17.77 17.97 18.15 18.29 17.34 17.40 17.33 17.68 17.34 16.38 15.53
16.07 15.75 15.77 17.85 17.20 14.23 29.11 26.55 25.23 33.34 32.09 29.47 29.27 30.31 29.31 31.62 22.82 20.11 19.10 18.10 17.51 16.59 16.91 17.58 16.13 15.70 17.08 17.88 16.23 13.76 12.31 14.60 15.21 14.88 14.47 14.52 15.22 15.88 15.77 14.92 15.01 14.85 14.52 13.71
17.56 24.38 21.78 22.02 22.99 33.15 31.42 32.11 32.42 30.07 30.14 31.04 28.79 29.93 28.13 27.25 22.57 20.25 17.04 15.01 13.55 13.68 13.32 13.19 11.57 10.46 11.72 12.99 12.94 10.29 11.73 12.76 12.20 11.57 11.13 12.13 13.32 14.15 14.62 13.84 13.55 13.35 13.86 13.07
21.87 27.88 22.31 22.03 26.21 27.51 29.28 31.37 30.49 29.88 28.51 30.07 28.37 27.21 26.91 25.82 21.71 17.67 14.53 12.87 12.08 11.66 10.53 10.59 9.50 7.61 7.35 9.54 10.04 9.94 10.39 10.51 9.95 9.29 9.54 10.44 10.48 11.14 12.36 13.48 13.75 12.97 12.15 11.68
27.35 25.22 23.37 23.72 27.37 29.62 30.26 31.28 31.93 30.69 29.03 27.18 26.30 25.26 25.04 23.79 18.97 16.59 14.21 12.65 11.82 10.73 10.19 9.74 7.79 6.61 6.17 7.57 7.89 9.15 9.67 9.57 8.12 7.86 8.17 8.92 9.76 9.70 9.50 10.35 10.99 11.29 12.95 12.92
27.51 25.26 22.94 22.64 29.73 29.49 30.40 32.45 29.11 28.93 28.45 26.65 23.87 20.50 21.64 21.18 17.82 16.00 12.92 12.04 10.53 8.66 8.02 6.77 5.92 5.46 5.57 6.07 6.21 7.41 8.63 8.28 7.01 6.16 6.43 6.36 6.47 6.87 6.92 6.81 7.42 14.18 13.61 13.19
MSLP
1013.47 1012.90 1011.47 1011.00 1010.96 1010.45 1009.93 1010.24 1009.95 1010.16 1011.90 1012.38 1011.10 1010.15 1009.54 1009.53 1010.35 1010.45 1010.47 1010.88 1011.71 1012.40 1013.46 1014.70 1015.85 1016.79 1017.58 1018.36 1019.08 1019.83 1020.44 1021.15 1021.62 1021.94 1022.26 1022.69 1022.85 1023.48 1023.91 1024.13 1024.45 1024.40 1024.45 1024.42
1013.75 1012.17 1011.39 1011.38 1011.50 1010.94 1011.07 1010.74 1010.35 1010.56 1011.69 1012.38 1010.73 1008.88 1008.35 1008.15 1007.89 1008.64 1009.08 1009.60 1010.38 1011.78 1012.74 1013.82 1015.16 1016.27 1017.08 1017.85 1018.66 1019.34 1019.96 1020.87 1021.19 1021.64 1021.77 1022.16 1022.94 1023.41 1023.78 1024.28 1024.60 1024.62 1024.74 1024.71
1012.47 1012.25 1012.58 1012.50 1012.36 1012.22 1011.71 1011.23 1010.84 1010.88 1011.34 1011.57 1010.63 1007.50 1006.65 1005.63 1005.95 1006.57 1007.43 1008.05 1009.08 1010.10 1011.32 1012.61 1014.05 1015.17 1016.32 1017.21 1017.97 1018.65 1019.47 1020.39 1020.86 1021.34 1021.86 1022.48 1023.24 1023.74 1024.09 1024.41 1024.68 1024.88 1025.02 1025.05
1013.10 1013.10 1013.39 1013.43 1013.06 1012.95 1012.36 1011.86 1011.93 1011.93 1012.00 1010.50 1010.36 1006.19 1004.89 1004.11 1004.14 1005.19 1005.98 1006.80 1007.25 1008.32 1009.85 1011.26 1012.82 1014.03 1015.13 1016.28 1017.44 1018.21 1019.07 1019.95 1020.60 1021.21 1021.84 1022.36 1022.62 1022.88 1023.27 1023.90 1024.34 1024.95 1025.19 1025.22
1013.53 1013.95 1014.24 1014.18 1013.87 1013.74 1013.12 1013.15 1012.88 1012.61 1011.85 1010.92 1009.52 1008.50 1003.58 1003.39 1003.31 1003.68 1004.36 1005.17 1006.12 1007.11 1008.58 1009.81 1011.49 1012.84 1014.21 1015.63 1016.60 1017.69 1018.54 1019.48 1020.19 1020.96 1021.49 1022.09 1022.12 1022.36 1023.02 1023.79 1024.44 1024.90 1025.31 1025.47
1014.45 1015.23 1015.14 1014.85 1015.18 1014.98 1014.58 1014.06 1013.71 1013.23 1012.40 1010.34 1008.69 1007.44 1001.55 1002.71 1002.34 1002.48 1002.88 1003.66 1005.06 1006.24 1007.60 1009.17 1010.84 1012.33 1013.58 1015.00 1016.21 1017.15 1018.00 1018.89 1019.74 1020.57 1021.19 1021.59 1021.81 1022.31 1023.02 1023.65 1024.22 1024.74 1025.17 1025.51
1014.64 1014.88 1015.60 1015.85 1015.63 1015.69 1015.29 1014.50 1013.59 1012.98 1012.08 1008.92 1007.81 1006.32 1002.50 1002.87 1002.36 1002.83 1002.91 1003.26 1003.95 1005.61 1006.73 1008.10 1009.46 1010.96 1012.52 1013.88 1015.32 1016.45 1017.34 1018.22 1019.22 1020.09 1020.80 1021.20 1021.63 1022.24 1022.85 1023.32 1023.89 1024.31 1024.80 1025.28
1013.68 1014.70 1015.59 1015.97 1015.65 1015.29 1015.18 1014.48 1013.50 1012.16 1010.78 1008.67 1008.55 1005.71 1003.07 1003.00 1002.66 1002.64 1003.35 1003.94 1004.22 1004.89 1006.02 1007.18 1008.45 1010.04 1011.43 1012.89 1014.38 1015.52 1016.54 1017.59 1018.58 1019.53 1020.26 1020.86 1021.40 1021.99 1022.56 1023.11 1023.61 1024.06 1024.48 1024.96
1013.20 1014.60 1016.30 1016.85 1016.88 1016.70 1016.09 1015.60 1014.60 1013.53 1011.95 1010.47 1006.88 1004.48 1003.37 1002.86 1002.52 1002.88 1003.51 1004.48 1004.93 1005.23 1005.84 1007.01 1008.42 1009.76 1010.91 1012.18 1013.42 1014.62 1015.88 1016.96 1017.92 1018.84 1019.68 1020.35 1021.07 1021.72 1022.22 1022.91 1023.38 1023.88 1024.17 1024.76
1013.45 1014.85 1016.58 1017.36 1017.64 1017.42 1017.05 1016.56 1015.48 1014.47 1012.48 1009.34 1005.89 1004.30 1002.94 1002.70 1002.32 1002.98 1003.66 1004.18 1004.64 1005.11 1005.61 1006.44 1007.68 1009.13 1010.43 1011.76 1013.02 1014.27 1015.26 1016.12 1017.16 1018.15 1018.94 1019.68 1020.60 1021.44 1021.98 1022.68 1023.19 1023.69 1024.16 1024.78
1014.31 1014.80 1017.22 1017.68 1017.17 1016.54 1017.40 1016.48 1015.85 1014.67 1012.40 1009.64 1006.42 1003.86 1002.90 1002.90 1003.22 1003.83 1004.36 1004.79 1004.91 1005.03 1005.85 1006.55 1007.41 1008.73 1010.03 1011.34 1012.36 1013.50 1014.60 1015.56 1016.58 1017.49 1018.26 1019.09 1020.02 1020.90 1021.65 1022.30 1022.83 1023.40 1024.05 1024.79
1014.24 1014.90 1015.67 1016.19 1016.90 1017.16 1016.92 1015.80 1015.18 1014.11 1012.03 1010.23 1007.96 1004.13 1003.07 1002.80 1003.76 1004.34 1004.65 1004.99 1005.25 1005.47 1006.03 1006.92 1007.60 1008.41 1009.44 1010.64 1011.70 1012.78 1013.84 1014.80 1015.80 1016.85 1017.80 1018.63 1019.53 1020.45 1021.27 1021.90 1022.56 1023.14 1023.87 1024.54
1014.32 1014.94 1015.27 1015.97 1017.40 1017.74 1017.13 1016.03 1015.11 1013.95 1012.84 1010.03 1008.68 1004.08 1003.58 1003.30 1003.52 1003.59 1004.08 1004.52 1005.21 1005.71 1006.05 1006.90 1007.90 1008.54 1009.02 1009.89 1010.91 1012.01 1013.05 1014.05 1015.19 1016.30 1017.29 1018.15 1018.98 1019.88 1020.71 1021.49 1022.24 1023.02 1023.76 1024.44
1014.28 1014.47 1014.65 1014.51 1015.48 1016.00 1016.63 1015.80 1015.23 1014.71 1012.71 1009.93 1006.86 1005.10 1004.45 1004.12 1003.93 1003.41 1003.61 1003.76 1004.51 1005.53 1006.04 1006.44 1007.26 1008.41 1009.26 1009.78 1010.46 1011.34 1012.45 1013.49 1014.56 1015.71 1016.69 1017.48 1018.28 1019.25 1020.20 1021.11 1021.97 1022.86 1023.70 1024.43
1014.90 1015.06 1015.25 1014.90 1015.13 1015.63 1015.44 1015.14 1014.99 1014.25 1012.48 1010.85 1006.85 1005.59 1004.81 1004.60 1004.23 1003.86 1003.99 1003.97 1004.62 1005.30 1005.64 1006.11 1006.56 1007.30 1008.79 1009.71 1010.32 1011.03 1011.90 1012.89 1013.96 1015.06 1016.04 1016.86 1017.86 1018.86 1019.83 1020.76 1021.72 1022.65 1023.50 1024.33
1015.59 1015.14 1015.60 1015.14 1014.97 1014.99 1014.31 1013.92 1014.01 1012.86 1011.80 1010.14 1008.98 1005.20 1005.79 1005.35 1004.77 1003.98 1003.62 1003.77 1004.20 1004.49 1005.10 1005.60 1006.41 1007.22 1007.63 1008.58 1009.53 1010.44 1011.29 1012.44 1013.60 1014.63 1015.66 1016.53 1017.55 1018.55 1019.52 1020.58 1021.58 1022.52 1023.45 1024.28
1015.61 1015.55 1015.82 1014.70 1014.53 1014.22 1012.49 1011.43 1011.33 1010.56 1010.19 1009.29 1008.14 1004.00 1005.29 1004.52 1004.20 1003.51 1003.74 1004.02 1004.28 1004.40 1004.59 1005.14 1005.70 1006.49 1007.44 1008.16 1008.79 1009.88 1010.99 1012.33 1013.49 1014.56 1015.57 1016.41 1017.35 1018.47 1019.51 1020.61 1021.68 1022.64 1023.64 1024.64
1015.11 1015.54 1015.39 1014.49 1014.58 1012.74 1009.19 1009.17 1009.37 1009.33 1008.44 1008.19 1006.77 1005.17 1005.02 1004.60 1003.95 1004.26 1004.94 1005.26 1004.98 1004.80 1004.69 1004.88 1005.51 1006.32 1007.48 1008.40 1009.43 1010.31 1011.34 1012.46 1013.59 1014.63 1015.64 1016.57 1017.60 1018.82 1019.91 1020.98 1022.11 1023.16 1024.32 1025.54
1014.32 1014.99 1014.69 1014.04 1012.70 1009.77 1008.25 1007.97 1008.64 1008.64 1007.09 1006.49 1005.99 1004.88 1004.55 1004.90 1005.28 1005.25 1006.09 1006.70 1006.46 1006.48 1005.64 1005.35 1005.90 1006.87 1007.97 1008.88 1009.97 1011.01 1012.17 1013.24 1014.23 1015.24 1016.27 1017.24 1018.31 1019.57 1020.82 1021.98 1023.18 1024.28 1025.32 1026.46
1014.61 1014.35 1014.02 1013.18 1011.66 1008.96 1007.21 1007.01 1007.17 1007.89 1006.73 1004.87 1005.07 1004.91 1005.10 1005.65 1006.63 1006.34 1008.01 1008.47 1008.51 1008.64 1008.19 1007.87 1008.25 1008.77 1009.47 1010.29 1011.08 1012.01 1013.35 1014.53 1015.75 1016.67 1017.62 1018.45 1019.47 1020.66 1021.94 1023.00 1024.04 1025.19 1026.12 1027.16
1014.13 1013.85 1012.62 1011.64 1010.48 1007.82 1006.58 1007.07 1007.61 1007.42 1005.88 1005.51 1005.56 1005.68 1005.84 1006.45 1007.56 1008.82 1009.54 1010.17 1010.66 1010.64 1010.54 1010.60 1010.84 1011.46 1012.15 1012.53 1013.00 1013.83 1015.03 1016.32 1017.47 1018.21 1018.99 1019.88 1020.93 1021.92 1023.00 1023.97 1025.06 1025.96 1026.90 1027.90
1011.22 1011.74 1011.15 1011.28 1010.06 1007.39 1006.21 1007.07 1006.87 1005.12 1005.22 1005.55 1005.72 1005.85 1006.33 1006.82 1008.52 1009.86 1010.77 1011.54 1012.05 1012.33 1012.53 1012.82 1013.32 1014.08 1014.67 1014.96 1015.31 1016.16 1017.07 1018.26 1018.77 1019.39 1020.24 1021.25 1022.20 1023.11 1024.17 1024.95 1026.10 1027.00 1027.76 1028.53
1009.66 1008.38 1008.42 1008.41 1006.48 1005.52 1005.30 1004.85 1005.00 1005.38 1005.78 1005.89 1006.32 1006.54 1006.98 1007.79 1009.13 1010.53 1011.78 1012.93 1013.76 1013.97 1014.25 1014.64 1015.08 1016.09 1016.90 1017.15 1017.32 1017.79 1019.28 1019.79 1020.24 1020.84 1021.79 1022.67 1023.46 1024.34 1025.18 1025.85 1026.79 1027.61 1028.40 1029.12
1008.16 1007.71 1007.63 1007.45 1005.36 1005.40 1005.37 1005.42 1005.83 1005.98 1006.07 1006.18 1006.65 1007.11 1007.61 1008.28 1009.69 1011.24 1012.74 1013.93 1014.84 1015.43 1015.81 1016.20 1016.50 1017.06 1018.04 1018.97 1019.29 1019.70 1020.43 1020.97 1021.44 1022.36 1023.45 1024.24 1024.72 1025.61 1026.37 1027.02 1027.75 1028.32 1029.02 1029.60
1007.02 1007.13 1006.51 1005.93 1004.95 1005.17 1004.60 1004.90 1005.48 1005.85 1006.21 1006.56 1007.02 1007.61 1008.17 1009.02 1010.43 1011.89 1013.19 1014.46 1015.55 1016.40 1016.90 1017.47 1017.95 1018.47 1019.15 1019.90 1020.48 1021.35 1021.88 1022.03 1022.55 1023.56 1024.69 1025.49 1026.22 1026.92 1027.68 1028.40 1028.96 1029.44 1030.01 1030.34
1006.34 1006.10 1005.78 1004.62 1004.50 1004.73 1004.06 1004.70 1005.36 1005.72 1006.21 1006.82 1007.75 1008.56 1009.19 1010.09 1011.22 1012.62 1014.07 1015.30 1016.32 1017.31 1018.03 1018.64 1019.41 1019.79 1020.44 1021.11 1021.42 1022.42 1023.13 1023.57 1023.89 1024.75 1025.88 1026.72 1027.36 1028.18 1028.94 1029.56 1030.10 1030.44 1030.84 1031.26
Wind_Speed
11 11 15 18 19 19 19 15 16 12 5 7 17 21 20 16 14 16 18 18 19 20 18 18 17 16 16 15 16 15 14 13 10 8 8 6 6 5 4 5 5 5 5 5
6 16 15 6 9 15 16 19 20 18 6 5 16 24 21 21 21 22 21 20 20 18 19 19 18 17 17 17 17 16 15 14 11 8 7 6 6 5 5 5 5 5 5 5
14 2 5 4 9 11 17 18 18 17 5 13 15 24 24 22 24 22 22 20 19 21 22 21 21 21 19 18 17 17 16 15 12 11 7 6 5 6 5 6 5 4 5 5
12 2 5 6 11 12 15 9 12 15 7 9 4 16 16 14 10 15 20 20 22 23 23 22 22 22 20 19 17 16 15 15 13 12 10 12 8 8 7 6 6 5 5 5
3 4 7 11 6 8 1 3 5 10 12 14 16 10 6 11 16 18 20 21 22 22 22 23 23 22 21 19 17 16 16 15 14 13 11 10 8 6 6 6 9 7 5 5
2 1 3 2 3 1 3 2 2 4 6 9 15 16 17 15 14 16 14 18 20 21 21 20 20 20 19 17 16 15 17 16 14 14 13 13 10 8 8 8 7 6 5 5
5 8 4 2 4 3 7 6 4 5 6 9 1 13 18 11 18 9 11 11 12 17 19 20 22 21 20 21 19 17 18 17 16 15 13 13 11 10 10 10 7 8 6 5
7 6 10 9 3 4 13 7 6 8 9 10 3 10 7 8 14 10 9 9 8 13 17 20 22 21 21 22 21 19 19 17 17 16 14 12 11 7 7 9 6 6 6 6
7 4 4 1 1 2 7 8 3 6 2 6 10 16 9 14 15 12 10 5 9 10 14 18 18 19 20 21 21 20 19 17 17 16 13 12 10 9 8 9 7 6 6 7
0 3 1 4 2 3 3 3 4 4 5 9 9 8 11 12 13 6 8 6 9 11 13 15 17 18 17 18 18 19 18 18 17 16 14 12 12 11 9 8 8 8 7 9
1 0 5 2 10 10 6 5 5 3 5 6 9 6 4 5 6 9 11 11 13 7 11 12 14 15 16 17 18 18 18 18 17 16 14 14 13 12 10 9 9 9 9 9
5 1 4 6 4 3 3 6 10 6 7 7 7 11 10 12 4 4 7 4 7 6 5 10 13 15 16 17 17 18 17 17 16 15 14 13 13 12 11 10 10 9 10 9
9 4 4 5 2 1 5 8 8 8 4 14 10 7 3 2 4 4 3 5 6 1 5 9 12 14 15 16 17 17 17 16 15 15 14 13 13 13 12 11 11 10 8 8
5 5 7 10 5 4 4 7 12 10 9 11 23 24 21 20 21 21 21 20 12 4 6 11 13 13 13 14 16 16 16 15 15 15 15 14 14 13 12 11 11 10 9 8
2 5 4 10 12 6 7 8 11 16 20 16 19 26 19 15 14 16 16 17 7 7 9 12 13 14 13 13 14 14 15 16 16 15 15 14 13 12 12 11 11 10 10 8
2 7 3 5 12 12 15 16 14 22 22 26 24 38 21 23 23 24 25 22 18 13 11 11 13 13 16 16 15 14 15 15 15 15 14 13 13 12 12 11 11 10 9 9
7 5 4 7 2 8 16 21 25 21 19 23 24 36 19 23 23 23 22 18 16 15 11 11 15 14 13 14 14 15 14 13 14 13 13 13 13 12 11 11 11 10 10 9
7 8 5 2 2 11 1 2 8 20 22 20 27 29 26 25 25 20 12 10 13 13 9 9 9 11 10 12 11 13 13 13 13 13 12 12 12 11 10 10 10 10 10 10
11 9 4 6 11 13 17 10 8 9 12 19 23 25 23 19 14 19 6 12 9 11 8 3 5 9 10 12 11 12 11 11 11 11 11 11 12 13 13 13 12 11 11 10
4 8 9 6 7 11 3 3 7 5 9 13 12 17 16 4 6 8 8 9 10 11 11 10 10 9 10 11 12 14 12 13 12 12 12 12 13 14 14 13 12 11 11 11
6 5 16 16 13 10 5 8 5 4 4 1 0 3 7 6 3 4 5 8 8 9 10 10 11 11 10 10 12 15 14 14 13 13 14 15 14 15 14 14 12 11 11 11
12 14 9 10 8 20 9 8 10 3 2 3 2 2 4 4 3 3 5 6 8 9 11 12 12 12 11 11 13 15 16 12 14 15 16 16 14 12 11 15 12 12 11 11
7 10 7 12 9 1 7 11 8 3 2 2 2 3 3 3 4 5 5 7 7 8 10 11 13 14 11 11 12 17 13 13 15 17 17 16 15 14 13 13 12 10 9 8
6 6 6 4 14 16 11 8 5 4 8 5 5 4 4 5 7 8 8 8 7 8 10 11 14 15 15 12 14 15 13 14 16 18 16 13 14 14 12 10 9 8 7 6
9 8 8 11 18 13 18 11 11 11 13 10 6 5 6 6 9 10 10 10 9 10 10 11 13 14 15 14 15 13 12 14 17 16 14 13 12 12 12 10 9 8 7 7
14 15 12 12 10 6 15 9 5 7 11 9 8 5 5 8 11 12 11 10 11 12 12 13 15 15 16 15 16 14 12 13 15 15 11 10 9 9 9 9 9 17 14 13
Wind_Direction
202 217 217 224 228 252 275 279 268 275 112 257 240 253 258 248 211 228 228 219 214 210 198 197 191 188 184 183 178 176 171 168 164 164 160 155 151 142 128 110 114 105 99 102
190 232 240 243 285 245 254 257 261 270 163 223 275 270 265 256 242 225 228 221 216 208 203 193 187 188 189 185 183 178 178 172 175 172 160 160 151 159 138 131 120 108 111 115
231 104 61 203 230 236 242 251 259 265 277 236 276 273 256 247 236 235 225 230 215 207 200 192 188 190 187 188 184 182 179 176 177 170 149 151 143 139 157 155 140 132 126 128
245 125 177 198 234 226 253 259 258 264 255 263 170 291 286 295 235 226 226 223 220 205 201 195 189 191 188 186 184 181 178 177 177 167 168 171 173 169 171 165 140 142 140 132
179 190 199 226 241 188 282 10 252 263 258 277 253 262 284 259 256 237 227 225 220 211 202 193 191 189 187 184 181 179 176 178 176 173 179 182 181 174 150 147 149 151 151 148
329 56 252 44 87 4 101 141 192 233 259 252 240 240 275 254 253 247 249 227 220 213 202 197 190 184 186 179 179 177 176 179 176 179 186 188 185 160 162 163 164 163 162 158
172 203 138 207 162 152 202 190 225 232 210 251 358 244 247 302 293 255 266 278 211 209 201 194 188 184 182 179 178 177 178 179 178 182 186 188 187 177 178 168 172 165 167 168
201 213 181 162 251 200 194 220 239 255 245 286 114 240 252 253 286 277 274 279 267 206 203 199 192 184 181 177 178 178 178 178 179 180 184 185 188 178 183 178 177 173 171 168
188 174 121 58 342 305 158 215 15 310 146 267 245 252 254 248 262 276 273 271 255 240 210 201 195 187 181 178 180 178 175 179 180 179 180 181 182 178 180 174 174 176 168 155
280 183 12 108 210 193 286 346 169 210 247 250 246 260 255 279 278 21 16 309 256 235 213 199 195 186 184 179 176 177 179 181 177 178 178 176 177 180 177 175 174 174 167 160
72 299 111 165 202 187 169 210 221 293 253 266 285 265 11 345 35 345 339 328 327 270 228 205 195 185 184 174 176 178 178 179 177 180 177 174 175 178 178 177 178 174 164 169
173 109 226 207 92 9 339 240 193 224 206 240 290 257 291 291 322 294 296 296 356 327 239 211 195 184 180 178 177 179 176 179 179 178 175 175 172 174 178 178 177 171 170 169
167 200 225 192 183 32 223 205 233 260 298 244 265 248 134 203 305 266 281 5 347 305 215 201 198 197 187 182 178 178 178 178 174 173 173 173 174 177 179 178 174 169 166 164
166 181 243 249 55 73 204 214 223 221 248 266 241 271 270 284 292 295 304 300 325 225 210 205 197 202 197 187 181 178 177 175 170 170 175 177 180 178 176 173 170 166 163 155
209 228 216 261 269 223 241 221 203 215 233 246 272 272 272 281 289 295 297 294 295 239 214 211 205 187 189 188 184 182 177 174 172 172 178 178 173 173 173 170 166 165 163 160
65 217 123 261 255 243 253 242 232 241 239 258 265 270 264 273 274 270 273 272 275 265 235 213 205 198 189 184 186 181 179 173 173 173 176 169 167 168 168 162 163 158 154 149
168 196 178 251 351 291 268 238 227 242 238 238 251 258 284 273 269 266 275 277 274 271 239 214 207 200 191 184 174 173 168 161 170 169 168 163 161 161 157 155 153 148 140 133
165 194 193 254 150 248 16 118 222 233 249 241 253 262 266 267 275 284 295 307 288 272 262 219 201 188 166 157 163 155 156 158 162 162 159 150 146 142 139 134 131 120 108 106
185 180 199 224 209 287 297 254 189 186 253 231 246 258 268 273 281 287 330 355 332 345 327 202 164 146 146 146 139 139 140 147 146 140 134 128 122 118 113 109 107 105 107 103
230 210 210 177 232 245 91 41 113 147 268 254 233 255 272 301 268 287 13 11 15 18 18 58 75 101 115 124 127 121 113 107 102 104 102 104 107 108 107 108 107 106 103 103
173 196 215 223 242 269 209 158 159 207 279 157 345 279 280 239 272 34 38 45 45 48 58 67 72 80 87 92 101 101 100 94 97 97 94 93 95 100 102 103 102 105 103 101
171 177 196 216 236 253 151 124 218 211 167 171 209 282 273 262 108 68 66 68 69 74 75 78 81 73 66 80 92 93 90 100 100 99 96 94 95 96 98 100 97 97 100 99
220 215 190 206 213 280 193 224 232 24 302 286 207 259 293 261 187 151 119 93 83 89 91 93 96 83 65 71 90 97 96 99 97 93 91 92 93 93 94 97 98 96 92 94
223 215 242 152 246 256 255 255 260 249 252 290 263 256 236 227 159 144 129 128 118 111 108 110 105 95 86 77 84 90 99 100 97 93 91 90 90 90 85 85 86 90 91 94
262 153 214 254 265 289 271 252 241 236 239 245 234 226 227 177 159 150 141 134 126 119 115 112 107 100 96 98 91 89 95 102 97 94 92 90 87 88 88 79 78 77 74 85
244 243 232 245 253 236 270 296 6 239 231 232 199 180 171 167 154 141 136 133 131 125 121 113 107 104 103 97 91 88 89 95 100 97 92 89 89 84 81 80 76 71 75 71